This demonstration page uses our WeatherBlox Daily Observations layout. Learn more.

Left ArrowRight Arrow

38.88101, -77.10428

Hourly Observations for December 28, 2015

Temp ( °F °C ) Dew Point ( °F °C ) Humidity (%) Winds ( mph kmh ) Pressure ( in mb ) Visibility ( mi km ) Precip ( " mm )
12:52 am 00:52 Cloudy 58 14.4 52 11.1 81 81 N 14 22 30.12 1020 10 16 N/A
1:52 am 01:52 Cloudy 53 11.7 47 8.3 80 80 NNE 18 30 30.16 1021 10 16 N/A
2:52 am 02:52 Cloudy 52 11.1 43 6.1 72 72 NNE 17 28 30.20 1023 10 16 N/A
3:10 am 03:10 Cloudy 50 10 37 3 62 62 N 23 37 30.21 1023 10 16 N/A
3:52 am 03:52 Cloudy 49 9.4 37 2.8 64 64 NNE 20 31 30.24 1024 10 16 N/A
4:52 am 04:52 Cloudy 47 8.3 34 1.1 61 61 NNE 16 26 30.26 1025 10 16 N/A
5:52 am 05:52 Cloudy 46 7.8 35 1.7 66 66 NNE 16 26 30.29 1026 10 16 N/A
6:52 am 06:52 Mostly Cloudy 45 7.2 34 1.1 66 66 N 16 26 30.33 1027 10 16 N/A
7:14 am 07:14 Cloudy 45 7 34 1 66 66 N 13 20 30.33 1027 10 16 N/A
7:52 am 07:52 Cloudy 44 6.7 34 1.1 68 68 NNE 13 20 30.37 1028 10 16 N/A
8:52 am 08:52 Cloudy 44 6.7 32 undefined 63 63 NE 22 35 30.38 1029 10 16 N/A
9:52 am 09:52 Cloudy 44 6.7 32 undefined 63 63 NNE 15 24 30.41 1030 10 16 N/A
10:52 am 10:52 Cloudy 44 6.7 33 0.6 65 65 NE 16 26 30.41 1030 10 16 N/A
11:52 am 11:52 Cloudy 44 6.7 32 undefined 63 63 NE 16 26 30.38 1029 10 16 N/A
12:52 pm 12:52 Cloudy 44 6.7 32 undefined 63 63 ENE 14 22 30.39 1029 10 16 N/A
1:52 pm 13:52 Cloudy with Light Rain 44 6.7 33 0.6 65 65 ENE 13 20 30.37 1028 10 16 N/A
2:52 pm 14:52 Cloudy 44 6.7 33 0.6 65 65 ENE 13 20 30.36 1028 10 16 N/A
3:09 pm 15:09 Cloudy with Light Rain 44 6.7 33 0.6 65 65 E 14 22 30.36 1028 10 16 N/A
3:52 pm 15:52 Cloudy 45 7.2 33 0.6 63 63 ENE 13 20 30.37 1028 10 16 N/A
4:48 pm 16:48 Cloudy 45 7 34 1 66 66 ENE 10 17 30.36 1028 10 16 N/A
4:52 pm 16:52 Cloudy 45 7.2 33 0.6 63 63 E 10 17 30.36 1028 10 16 N/A
5:52 pm 17:52 Cloudy with Light Rain 45 7.2 36 2.2 71 71 E 9 15 30.35 1028 10 16 N/A
6:00 pm 18:00 Cloudy 45 7 36 2 71 71 E 12 19 30.36 1028 10 16 N/A
6:03 pm 18:03 Cloudy with Light Rain 45 7 36 2 71 71 E 12 19 30.36 1028 9 14 N/A
6:28 pm 18:28 Cloudy 44 6.7 37 2.8 76 76 E 14 22 30.36 1028 10 16 0.01 0.25
6:52 pm 18:52 Cloudy 43 6.1 37 2.8 80 80 E 12 19 30.34 1028 10 16 0.01 0.25
7:24 pm 19:24 Cloudy with Light Rain 43 6 36 2 76 76 E 12 19 30.33 1027 10 16 N/A
7:52 pm 19:52 Cloudy 43 6.1 37 2.8 80 80 ENE 10 17 30.32 1027 10 16 N/A
8:52 pm 20:52 Cloudy with Drizzle 42 5.6 39 3.9 89 89 NE 12 19 30.31 1027 4 6 N/A
8:54 pm 20:54 Cloudy with Drizzle 43 6 39 4 87 87 NE 10 17 30.33 1027 4 6 N/A
9:01 pm 21:01 Cloudy with Light Rain 42 5.6 39 3.9 89 89 NE 12 19 30.30 1026 4 6 N/A
9:08 pm 21:08 Cloudy with Light Rain 41 5 39 4 93 93 NNE 10 17 30.33 1027 4 6 N/A
9:10 pm 21:10 Cloudy with Light Rain 41 5 39 4 93 93 NNE 10 17 30.33 1027 3 5 N/A
9:35 pm 21:35 Cloudy with Light Rain 41 5 39 3.9 93 93 NE 9 15 30.30 1026 3 5 0.02 0.51
9:52 pm 21:52 Cloudy with Light Rain 41 5 40 4.4 96 96 ENE 10 17 30.27 1025 4 6 0.03 0.76
10:26 pm 22:26 Cloudy with Drizzle 43 6 39 4 87 87 NE 9 15 30.27 1025 5 8 N/A
10:52 pm 22:52 Cloudy with Light Rain 42 5.6 41 5 96 96 NE 12 19 30.23 1024 4 6 0.02 0.51
11:52 pm 23:52 Cloudy with Light Rain 44 6.7 42 5.6 93 93 N 10 17 30.19 1022 5 8 0.16 4.06

Powered by AerisWeather